Showing default

PROX-1, 44339

Orbit data source: Space-Track

PROX-1, 44339 is a payload satellite owned by GaTech (US) in LEO that was launched on Tue, 25 Jun 2019 UTC via an FALCON HEAVY launch vehicle from the Air Force Eastern Test Range (AFETR). Payloads include a variety of satellites, spacecraft, and rockets equipped with specific instruments for various scientific and technological missions. These include communications satellites like Starlink; space stations such as the ISS; scientific satellites like the Hubble; Earth observation satellites from companies like Planet Labs, Umbra, and HawkEye 360; GPS; miniature CubeSats for education and research; and military/defense satellites.

Not visible in the next 10 days
PROX-1 details
Identifier
44339, 2019-036A
Orbit
LEO
Last TLE update4 hours ago
Origin
Flag of USGaTech (US)
ManufacturerGaTech
MissionOperational Amateur Technology
Bus & MotorPROX-1, Unknown motor
Mass70 kg wet, 70 kg dry
Launch date (UTC)
2019-06-25 (6 years ago)
Launch vehicle
FALCON HEAVY
Launch site
Air Force Eastern Test Range (AFETR)
Object type
Payload
Rocket body
Debris
Shape & HBRBox + 1 Tether, 0.6 m
Radar Cross Section0.360 m², Medium (>0.1 m² and < 1m²)

Expand to show TLE details & history

TLE from 4 hours ago
0 PROX-1
1 44339U 19036A   24361.46703280  .00019293  00000-0  28201-2 0  9997
2 44339  23.9990  61.8419 0007213   2.8413 357.2123 14.74151603293668
Epoch: 2024-12-26T11:12Z
Definitive object data (Epoch: 2024-12-26T11:12:31.633Z)
Latitude-0.00003°
Longitude158.26402°
Altitude640.696 km
Speed7.543 km/s
True Right ascension04h 07m 22s
True Declination0° 00' 00"
Sunlit
Object was in full shadow at TLE epoch
Visualization TLE readout
Latitude-19.04814°
Longitude27.57172°
Altitude653.473 km
Speed7.531 km/s
Apparent Right ascension22h 17m 56s
Apparent Declination-43° 49' 28"
Sunlit
Object is in daylight
Visualization observer readout
Local Sidereal Time14:52:34
Azimuth118.353° SE
Elevation-40.218°
Doppler factor1
Orbital elements
Apogee altitude657.637 km
Perigee altitude647.494 km
Semi-major axis7,030.702 km
Eccentricity0.0007213
Inclination23.999°
RAAN61.8419°
Arg. of periapsis2.8413°
True anomaly357.20828°
Mean anomaly357.2123°
Eccentric anomaly357.21029°
Mean motion3.68167 °/min
BSTAR0.0028201
Orbital period97.78 mins
Loading maneuver chart data...
Loading historical data...
Loading historical data...
Loading historical data...
Loading historical data...
Loading historical data...
Loading historical data...
Loading historical data...

PROX-1 Visibility forecast

Observer location: undefined°, undefined

PROX-1 is not visible in the next 10 days
Span
Click to sort rows by Start time (UTC) header in descending order
Start Az.
Max El. time (UTC)
Max El. Az.
Max El.
End time (UTC)
End Az.
|